Current weather by "City, St" or "zip code"  
 

Current Conditions: Phoenix, Phoenix-Deer Valley Municipal Airport, AZ

Fair


77.0 F

Last Updated on Oct 24 2020, 9:53 am MST
Humidity: 33%
Wind Speed: E 8.1 mph
Barometer 29.96 in
Dewpoint: 46.0 F
Visibility: 10.00 mi
Precip: --
Heat Index: NA
Wind Chill: NA
Current conditions at:

Phoenix, Phoenix-Deer Valley Municipal Airport, AZ (KDVT)

Lat: 33.69026 Lon: 112.06618

Local Radar Image active severe weather and emergency alerts image image weather storm and storm spotter reports image weather observation monitoring service image
Local
Radar
Active
Alerts
Storm Reports Obs
Monitoring

Sign-up For Email & Text Message Weather Alert Notification Services



Advertise Here

Observation History for Phoenix, Phoenix-Deer Valley Municipal Airport, AZ


Time Wind
(mph)
Vis
(mi)
Weather Precip (in) Temperature (F) Relative
Humidity
Wind
Chill
(F)
Heat
Index
(F)
Pressure
Air Dwpt altimeter
(in)
sea level
(mb)
Rmks
9:53 am MST E 8.1 10.00 Fair -- 77.0 46.0 33% NA NA 29.96 1012.7
8:53 am MST E 4.6 10.00 Fair -- 74.0 45.0 36% NA NA 29.97 1012.8
7:53 am MST N 0.0 10.00 Fair -- 68.0 45.0 44% NA NA 29.95 1012.2
6:53 am MST E 5.8 10.00 Fair -- 70.0 45.0 41% NA NA 29.94 1011.8
5:53 am MST E 8.1 10.00 Fair -- 69.0 44.1 41% NA NA 29.94 1011.7
4:53 am MST E 8.1 10.00 Fair -- 69.0 44.1 41% NA NA 29.93 1011.3
3:53 am MST E 4.6 10.00 Fair -- 67.0 44.1 44% NA NA 29.92 1011.1
2:53 am MST E 4.6 10.00 Fair -- 68.0 44.1 42% NA NA 29.92 1011.0
1:53 am MST N 0.0 10.00 Fair -- 70.0 44.1 39% NA NA 29.93 1011.2
12:53 am MST N 0.0 10.00 Fair -- 72.0 44.1 37% NA NA 29.92 1011.1
11:53 pm MST N 0.0 10.00 Fair -- 71.0 43.0 36% NA NA 29.93 1011.3
10:53 pm MST N 3.5 10.00 Fair -- 73.0 44.1 35% NA NA 29.93 1011.3
9:53 pm MST N 0.0 10.00 Fair -- 74.0 43.0 33% NA NA 29.92 1010.9
8:53 pm MST N 0.0 10.00 Fair -- 77.0 44.1 31% NA NA 29.91 1010.6
7:53 pm MST N 0.0 10.00 Fair -- 82.0 45.0 27% NA 80 29.90 1010.4
6:53 pm MST N 0.0 10.00 Fair -- 84.0 45.0 25% NA 82 29.89 1010.1
5:53 pm MST N 0.0 10.00 Fair -- 86.0 45.0 24% NA 83 29.87 1009.3
4:53 pm MST W 5.8 10.00 Fair -- 87.0 46.9 25% NA 84 29.87 1009.5
3:53 pm MST 4.6 10.00 Fair -- 88.0 46.9 24% NA 85 29.87 1009.3
2:53 pm MST SW 8.1 10.00 Fair -- 88.0 48.9 26% NA 85 29.87 1009.2
1:53 pm MST SW 6.9 10.00 Fair -- 86.0 50.0 29% NA 84 29.89 1009.8
12:53 pm MST S 6.9 10.00 Fair -- 86.0 48.9 28% NA 83 29.91 1010.7
11:53 am MST 10.00 Fair -- 85.0 51.1 31% NA 83 29.94 1011.8
10:53 am MST SE 8.1 10.00 Fair -- 82.0 50.0 33% NA 81 29.96 1012.4

Regional Weather Observation


Glendale, Glendale Municipal Airport, AZ (KGEU)

Mostly Cloudy
75.0 F

Luke Air Force Base / Phoenix, AZ (KLUF)

Fair
75.0 F

Phoenix, Phoenix Sky Harbor International Airport, AZ (KPHX)

Mostly Cloudy
77.0 F

Goodyear Municipal, AZ (KGYR)

Mostly Cloudy
73.0 F

Buckeye Municipal Airport, AZ (KBXK)

Fair
73.0 F

Scottsdale Airport, AZ (KSDL)

Fair
76.0 F